Regional Weather Roundup
Issued by NWS

Home | Current Version | Previous Version | Graphics & Text | Print | Product List | Glossary On
Versions: 1 2 3 4 5 6 7 8 9 10 11 12 13 14 15 16 17 18 19 20 21 22 23 24 25 26 27 28 29 30 31 32 33 34 35 36 37 38 39 40 41 42 43 44 45 46 47 48 49 50
000
ASUS45 KCYS 211410
RWRWY

WYOMING REGIONAL WEATHER ROUNDUP
NATIONAL WEATHER SERVICE CHEYENNE WY
800 AM MDT SUN SEP 21 2014

NOTE:  "FAIR" INDICATES FEW OR NO CLOUDS BELOW 12,000 FEET
WITH NO SIGNIFICANT WEATHER AND/OR OBSTRUCTIONS TO VISIBILITY.

WYZ001-211500-
YELLOWSTONE NATIONAL PARK

CITY           SKY/WX    TMP DP  RH WIND       PRES   REMARKS
LK YELLOWSTONE   N/A     36  34  92 CALM      30.43S
W YELLOWSTONE  NOT AVBL

$$
WYZ002>013-054>058-071-098>099-211500-
NORTHERN WYOMING

CITY           SKY/WX    TMP DP  RH WIND       PRES   REMARKS
JACKSON        CLEAR     48  39  71 CALM      30.35R
CODY             N/A    N/A N/A N/A MISG        N/A
GREYBULL       SUNNY     47  43  86 CALM      30.30R
WORLAND        MOSUNNY   47  42  83 CALM      30.30S
SHERIDAN       SUNNY     44  40  85 CALM      30.31S
BUFFALO        SUNNY     51  39  63 SE7       30.34S
GILLETTE       SUNNY     46  39  76 CALM      30.35S
HULETT         FAIR      50  36  57 MISG      30.37
NEWCASTLE      FAIR      46  36  66 CALM      30.38

$$
WYZ014>020-022>026-101>103-211500-
CENTRAL WYOMING

CITY           SKY/WX    TMP DP  RH WIND       PRES   REMARKS
BIG PINEY      CLEAR     43  34  70 CALM      30.37S
PINEDALE       MOSUNNY   43  39  87 CALM      30.40R
DUBOIS         FAIR      39  34  81 NW8       30.44R WCI  34
LANDER         CLEAR     50  38  63 W9        30.36R
RIVERTON       SUNNY     50  35  56 NW3       30.36S
CASPER         SUNNY     46  33  60 N3        30.36S
DOUGLAS        SUNNY     53  38  56 SE10      30.37S

$$
WYZ021-027>030-104>119-211500-
SOUTHERN WYOMING

CITY           SKY/WX    TMP DP  RH WIND       PRES   REMARKS
EVANSTON       CLOUDY    51  39  63 E6        30.36S
KEMMERER       CLOUDY    52  37  58 N9        30.38R
FORT BRIDGER   PTSUNNY   49  41  74 NW5       30.39R
ROCK SPRINGS   PTCLDY    51  36  56 E9        30.37R
DIXON          FAIR      45  41  86 CALM      30.36R
RAWLINS        SUNNY     49  36  61 NE10      30.37R
SARATOGA       FAIR      46  41  81 CALM      30.38S
LARAMIE        SUNNY     49  38  65 S16       30.42R
CHEYENNE       CLOUDY    54  37  52 S8        30.42R
TORRINGTON     MOSUNNY   52  40  63 CALM      30.37R
PINE BLUFFS    CLOUDY    54  41  62 CALM      30.41S

$$



USA.gov is the U.S. government's official web portal to all federal, state and local government web resources and services.